Weather in Kopeykino

Russia / Omsk Oblast     54°38′55″N   73°46′04″E
temp.,
°C
wind,
m/s
gust,
m/s
humid.,
%
clouds,
%
prec.,
mm/h
press.,
hPa
HPBL,
m
2 august, mon
mon200:00+21sse366554 0.0 100796
03:00+19w237695 0.4 100632
06:00+18sw22820 0.8 100524
09:00+22nw69730 0.0 1006539
12:00+26nw78510 0.1 10071802
15:00+29nw89322 0.0 10062715
18:00+28nw7932100 0.0 10062514
21:00+24nnw6104499 0.0 1008681
3 august, tue
tue300:00+21nw385693 0.0 1009221
03:00+17nw47714 0.0 1009121
06:00+16wnw367685 0.0 1010114
09:00+20wnw4661100 0.0 1010298
12:00+25wnw5736100 0.0 10102675
15:00+26wnw5632100 0.0 10092559
18:00+22w46506 0.0 1008439
21:00+19w6107272 0.3 1009326
4 august, wed
wed400:00+14w359283 0.4 100896
03:00+14nnw38975 0.0 1009217
06:00+12nw499711 0.0 1010234
09:00+17nnw577385 0.0 1010774
12:00+19n676283 0.3 10101247
15:00+22n685278 0.5 10101675
18:00+21nnw5854100 0.6 10101304
21:00+18n3567100 0.0 101169
5 august, thu
thu500:00+16nnw359086 0.0 101188
03:00+14nw379511 0.0 1011133
06:00+14nnw379466 0.0 1011162
09:00+20nnw576520 0.0 1012690
12:00+24nnw564984 0.3 10111739
15:00+24nnw4644100 0.0 10101930
18:00+23nw3648100 0.1 1010316
21:00+20nne2358100 0.0 101027
6 august, fri
fri600:00+17ssw117065 0.0 101011
03:00+16wnw127551 0.0 101011
06:00+16wnw1174100 0.0 101011
09:00+22sw225273 0.0 1010311
12:00+26sw3340100 0.0 10091604
15:00+22sw3459100 0.1 1008114
18:00+21ese1163100 0.6 100814
21:00+19wsw2278100 2.1 100816